Year,Month,Day,Hour,Minute,Value (Times are PST for temperature in C)
2015,07,15,00,00,14.20
2015,07,15,00,01,14.20
2015,07,15,00,02,14.10
2015,07,15,00,03,14.10
2015,07,15,00,04,14.10
2015,07,15,00,05,14.10
2015,07,15,00,06,14.10
2015,07,15,00,07,14.10
2015,07,15,00,08,14.10
2015,07,15,00,09,14.10
2015,07,15,00,10,14.10
2015,07,15,00,11,14.10
2015,07,15,00,12,14.00
2015,07,15,00,13,14.00
2015,07,15,00,14,14.00
2015,07,15,00,15,14.00
2015,07,15,00,16,13.90
2015,07,15,00,17,13.90
2015,07,15,00,18,13.90
2015,07,15,00,19,13.90
2015,07,15,00,20,13.90
2015,07,15,00,21,13.90
2015,07,15,00,22,13.90
2015,07,15,00,23,13.90
2015,07,15,00,24,13.90
2015,07,15,00,25,13.90
2015,07,15,00,26,13.90
2015,07,15,00,27,13.80
2015,07,15,00,28,13.80
2015,07,15,00,29,13.80
2015,07,15,00,30,13.80
2015,07,15,00,31,13.80
2015,07,15,00,32,13.80
2015,07,15,00,33,13.80
2015,07,15,00,34,13.80
2015,07,15,00,35,13.80
2015,07,15,00,36,13.80
2015,07,15,00,37,13.90
2015,07,15,00,38,13.90
2015,07,15,00,39,13.90
2015,07,15,00,40,13.90
2015,07,15,00,41,13.90
2015,07,15,00,42,13.90
2015,07,15,00,43,13.90
2015,07,15,00,44,13.90
2015,07,15,00,45,13.90
2015,07,15,00,46,13.90
2015,07,15,00,47,13.90
2015,07,15,00,48,13.90
2015,07,15,00,49,13.90
2015,07,15,00,50,13.90
2015,07,15,00,51,13.90
2015,07,15,00,52,13.90
2015,07,15,00,53,13.90
2015,07,15,00,54,13.90
2015,07,15,00,55,13.90
2015,07,15,00,56,14.00
2015,07,15,00,57,14.00
2015,07,15,00,58,14.00
2015,07,15,00,59,13.90
2015,07,15,01,00,13.90
2015,07,15,01,01,13.90
2015,07,15,01,02,13.90
2015,07,15,01,03,13.90
2015,07,15,01,04,13.90
2015,07,15,01,05,13.90
2015,07,15,01,06,13.90
2015,07,15,01,07,13.90
2015,07,15,01,08,13.90
2015,07,15,01,09,13.90
2015,07,15,01,10,13.90
2015,07,15,01,11,13.90
2015,07,15,01,12,13.90
2015,07,15,01,13,13.90
2015,07,15,01,14,13.90
2015,07,15,01,15,13.90
2015,07,15,01,16,13.90
2015,07,15,01,17,13.90
2015,07,15,01,18,13.90
2015,07,15,01,19,13.90
2015,07,15,01,20,13.90
2015,07,15,01,21,13.90
2015,07,15,01,22,13.90
2015,07,15,01,23,13.90
2015,07,15,01,24,13.80
2015,07,15,01,25,13.80
2015,07,15,01,26,13.80
2015,07,15,01,27,13.80
2015,07,15,01,28,13.80
2015,07,15,01,29,13.80
2015,07,15,01,30,13.80
2015,07,15,01,31,13.80
2015,07,15,01,32,13.80
2015,07,15,01,33,13.80
2015,07,15,01,34,13.80
2015,07,15,01,35,13.80
2015,07,15,01,36,13.80
2015,07,15,01,37,13.80
2015,07,15,01,38,13.80
2015,07,15,01,39,13.70
2015,07,15,01,40,13.70
2015,07,15,01,41,13.70
2015,07,15,01,42,13.70
2015,07,15,01,43,13.70
2015,07,15,01,44,13.60
2015,07,15,01,45,13.60
2015,07,15,01,46,13.60
2015,07,15,01,47,13.60
2015,07,15,01,48,13.60
2015,07,15,01,49,13.50
2015,07,15,01,50,13.50
2015,07,15,01,51,13.50
2015,07,15,01,52,13.50
2015,07,15,01,53,13.50
2015,07,15,01,54,13.50
2015,07,15,01,55,13.40
2015,07,15,01,56,13.40
2015,07,15,01,57,13.40
2015,07,15,01,58,13.40
2015,07,15,01,59,13.40
2015,07,15,02,00,13.30
2015,07,15,02,01,13.30
2015,07,15,02,02,13.30
2015,07,15,02,03,13.30
2015,07,15,02,04,13.20
2015,07,15,02,05,13.20
2015,07,15,02,06,13.20
2015,07,15,02,07,13.20
2015,07,15,02,08,13.20
2015,07,15,02,09,13.20
2015,07,15,02,10,13.20
2015,07,15,02,11,13.10
2015,07,15,02,12,13.10
2015,07,15,02,13,13.10
2015,07,15,02,14,13.10
2015,07,15,02,15,13.10
2015,07,15,02,16,13.10
2015,07,15,02,17,13.10
2015,07,15,02,18,13.10
2015,07,15,02,19,13.10
2015,07,15,02,20,13.10
2015,07,15,02,21,13.10
2015,07,15,02,22,13.10
2015,07,15,02,23,13.10
2015,07,15,02,24,13.10
2015,07,15,02,25,13.10
2015,07,15,02,26,13.10
2015,07,15,02,27,13.10
2015,07,15,02,28,13.10
2015,07,15,02,29,13.10
2015,07,15,02,30,13.10
2015,07,15,02,31,13.10
2015,07,15,02,32,13.10
2015,07,15,02,33,13.10
2015,07,15,02,34,13.10
2015,07,15,02,35,13.10
2015,07,15,02,36,13.10
2015,07,15,02,37,13.10
2015,07,15,02,38,13.10
2015,07,15,02,39,13.10
2015,07,15,02,40,13.10
2015,07,15,02,41,13.10
2015,07,15,02,42,13.10
2015,07,15,02,43,13.10
2015,07,15,02,44,13.10
2015,07,15,02,45,13.10
2015,07,15,02,46,13.10
2015,07,15,02,47,13.10
2015,07,15,02,48,13.10
2015,07,15,02,49,13.10
2015,07,15,02,50,13.10
2015,07,15,02,51,13.10
2015,07,15,02,52,13.00
2015,07,15,02,53,13.00
2015,07,15,02,54,13.00
2015,07,15,02,55,13.00
2015,07,15,02,56,12.90
2015,07,15,02,57,12.90
2015,07,15,02,58,12.90
2015,07,15,02,59,12.90
2015,07,15,03,00,12.90
2015,07,15,03,01,12.90
2015,07,15,03,02,12.90
2015,07,15,03,03,12.90
2015,07,15,03,04,12.90
2015,07,15,03,05,12.90
2015,07,15,03,06,12.90
2015,07,15,03,07,12.90
2015,07,15,03,08,12.90
2015,07,15,03,09,12.90
2015,07,15,03,10,12.90
2015,07,15,03,11,12.90
2015,07,15,03,12,12.90
2015,07,15,03,13,12.90
2015,07,15,03,14,12.90
2015,07,15,03,15,12.90
2015,07,15,03,16,12.90
2015,07,15,03,17,12.90
2015,07,15,03,18,12.90
2015,07,15,03,19,12.90
2015,07,15,03,20,12.90
2015,07,15,03,21,12.90
2015,07,15,03,22,12.90
2015,07,15,03,23,12.90
2015,07,15,03,24,12.90
2015,07,15,03,25,12.90
2015,07,15,03,26,12.90
2015,07,15,03,27,12.90
2015,07,15,03,28,12.90
2015,07,15,03,29,13.00
2015,07,15,03,30,13.00
2015,07,15,03,31,13.00
2015,07,15,03,32,13.00
2015,07,15,03,33,13.00
2015,07,15,03,34,13.00
2015,07,15,03,35,13.00
2015,07,15,03,36,13.00
2015,07,15,03,37,13.00
2015,07,15,03,38,13.00
2015,07,15,03,39,13.00
2015,07,15,03,40,13.00
2015,07,15,03,41,13.00
2015,07,15,03,42,13.00
2015,07,15,03,43,13.00
2015,07,15,03,44,12.90
2015,07,15,03,45,12.90
2015,07,15,03,46,12.90
2015,07,15,03,47,12.90
2015,07,15,03,48,13.00
2015,07,15,03,49,13.00
2015,07,15,03,50,13.00
2015,07,15,03,51,13.00
2015,07,15,03,52,13.00
2015,07,15,03,53,13.10
2015,07,15,03,54,13.10
2015,07,15,03,55,13.10
2015,07,15,03,56,13.10
2015,07,15,03,57,13.10
2015,07,15,03,58,13.10
2015,07,15,03,59,13.10
2015,07,15,04,00,13.10
2015,07,15,04,01,13.10
2015,07,15,04,02,13.10
2015,07,15,04,03,13.10
2015,07,15,04,04,13.10
2015,07,15,04,05,13.10
2015,07,15,04,06,13.10
2015,07,15,04,07,13.10
2015,07,15,05,02,12.80
2015,07,15,05,03,12.80
2015,07,15,05,04,12.80
2015,07,15,05,05,12.80
2015,07,15,05,06,12.80
2015,07,15,05,07,12.80
2015,07,15,05,08,12.80
2015,07,15,05,09,12.80
2015,07,15,05,10,12.80
2015,07,15,05,11,12.80
2015,07,15,05,12,12.80
2015,07,15,05,13,12.80
2015,07,15,05,14,12.80
2015,07,15,05,15,12.80
2015,07,15,05,16,12.80
2015,07,15,05,17,12.80
2015,07,15,05,18,12.80
2015,07,15,05,19,12.80
2015,07,15,05,20,12.80
2015,07,15,05,21,12.80
2015,07,15,05,22,12.80
2015,07,15,05,23,12.80
2015,07,15,05,24,12.80
2015,07,15,05,25,12.80
2015,07,15,05,26,12.80
2015,07,15,05,27,12.80
2015,07,15,05,28,12.80
2015,07,15,05,29,12.80
2015,07,15,05,30,12.80
2015,07,15,05,31,12.80
2015,07,15,05,32,12.80
2015,07,15,05,33,12.80
2015,07,15,05,34,12.90
2015,07,15,05,35,12.90
2015,07,15,05,36,12.90
2015,07,15,05,37,12.90
2015,07,15,05,38,12.90
2015,07,15,05,39,12.90
2015,07,15,05,40,12.90
2015,07,15,05,41,12.90
2015,07,15,05,42,12.90
2015,07,15,05,43,12.90
2015,07,15,05,44,12.90
2015,07,15,05,45,12.90
2015,07,15,05,46,12.90
2015,07,15,05,47,12.90
2015,07,15,05,48,12.90
2015,07,15,05,49,12.90
2015,07,15,05,50,12.90
2015,07,15,05,51,12.90
2015,07,15,05,52,12.90
2015,07,15,05,53,12.90
2015,07,15,05,54,12.90
2015,07,15,05,55,12.90
2015,07,15,05,56,12.90
2015,07,15,05,57,12.90
2015,07,15,05,58,12.90
2015,07,15,05,59,12.90
2015,07,15,06,00,13.00
2015,07,15,06,01,13.00
2015,07,15,06,02,13.00
2015,07,15,06,03,13.10
2015,07,15,06,04,13.10
2015,07,15,06,05,13.10
2015,07,15,06,06,13.10
2015,07,15,06,07,13.10
2015,07,15,06,08,13.10
2015,07,15,06,09,13.10
2015,07,15,06,10,13.10
2015,07,15,06,11,13.10
2015,07,15,06,12,13.10
2015,07,15,06,13,13.20
2015,07,15,06,14,13.20
2015,07,15,06,15,13.20
2015,07,15,06,16,13.20
2015,07,15,06,17,13.20
2015,07,15,06,18,13.20
2015,07,15,06,19,13.20
2015,07,15,06,20,13.20
2015,07,15,06,21,13.30
2015,07,15,06,22,13.30
2015,07,15,06,23,13.30
2015,07,15,06,24,13.30
2015,07,15,06,25,13.30
2015,07,15,06,26,13.20
2015,07,15,06,27,13.20
2015,07,15,06,28,13.20
2015,07,15,06,29,13.20
2015,07,15,06,30,13.20
2015,07,15,06,31,13.20
2015,07,15,06,32,13.20
2015,07,15,06,33,13.30
2015,07,15,06,34,13.30
2015,07,15,06,35,13.30
2015,07,15,06,36,13.30
2015,07,15,06,37,13.30
2015,07,15,06,38,13.30
2015,07,15,06,39,13.30
2015,07,15,06,40,13.30
2015,07,15,06,41,13.30
2015,07,15,06,42,13.40
2015,07,15,06,43,13.40
2015,07,15,06,44,13.40
2015,07,15,06,45,13.40
2015,07,15,06,46,13.50
2015,07,15,06,47,13.50
2015,07,15,06,48,13.60
2015,07,15,06,49,13.60
2015,07,15,06,50,13.60
2015,07,15,06,51,13.60
2015,07,15,06,52,13.70
2015,07,15,06,53,13.70
2015,07,15,06,54,13.70
2015,07,15,06,55,13.70
2015,07,15,06,56,13.70
2015,07,15,06,57,13.70
2015,07,15,06,58,13.70
2015,07,15,06,59,13.70
2015,07,15,07,00,13.70
2015,07,15,07,01,13.70
2015,07,15,07,02,13.80
2015,07,15,07,03,13.80
2015,07,15,07,04,13.80
2015,07,15,07,05,13.80
2015,07,15,07,06,13.80
2015,07,15,07,07,13.80
2015,07,15,07,08,13.90
2015,07,15,07,09,13.90
2015,07,15,07,10,13.90
2015,07,15,07,11,13.90
2015,07,15,07,12,13.90
2015,07,15,07,13,13.90
2015,07,15,07,14,13.90
2015,07,15,07,15,14.00
2015,07,15,07,16,14.00
2015,07,15,07,17,14.00
2015,07,15,07,18,14.00
2015,07,15,07,19,14.00
2015,07,15,07,20,14.00
2015,07,15,07,21,13.90
2015,07,15,07,22,13.90
2015,07,15,07,23,13.90
2015,07,15,07,24,13.90
2015,07,15,07,25,13.90
2015,07,15,07,26,13.90
2015,07,15,07,27,14.00
2015,07,15,07,28,14.00
2015,07,15,07,29,14.00
2015,07,15,07,30,14.10
2015,07,15,07,31,14.10
2015,07,15,07,32,14.10
2015,07,15,07,33,14.20
2015,07,15,07,34,14.20
2015,07,15,07,35,14.20
2015,07,15,07,36,14.20
2015,07,15,07,37,14.30
2015,07,15,07,38,14.30
2015,07,15,07,39,14.30
2015,07,15,07,40,14.30
2015,07,15,07,41,14.40
2015,07,15,07,42,14.40
2015,07,15,07,43,14.40
2015,07,15,07,44,14.40
2015,07,15,07,45,14.50
2015,07,15,07,46,14.50
2015,07,15,07,47,14.50
2015,07,15,07,48,14.60
2015,07,15,07,49,14.60
2015,07,15,07,50,14.60
2015,07,15,07,51,14.70
2015,07,15,07,52,14.70
2015,07,15,07,53,14.70
2015,07,15,07,54,14.70
2015,07,15,07,55,14.70
2015,07,15,07,56,14.70
2015,07,15,07,57,14.80
2015,07,15,07,58,14.80
2015,07,15,07,59,14.80
2015,07,15,08,00,14.80
2015,07,15,08,01,14.80
2015,07,15,08,02,14.80
2015,07,15,08,03,14.80
2015,07,15,08,04,14.80
2015,07,15,08,05,14.80
2015,07,15,08,06,14.80
2015,07,15,08,07,14.80
2015,07,15,08,08,14.80
2015,07,15,08,09,14.90
2015,07,15,08,10,14.90
2015,07,15,08,11,14.90
2015,07,15,08,12,14.90
2015,07,15,08,13,15.00
2015,07,15,08,14,15.00
2015,07,15,08,15,15.00
2015,07,15,08,16,15.00
2015,07,15,08,17,15.00
2015,07,15,08,18,14.90
2015,07,15,08,19,14.90
2015,07,15,08,20,14.90
2015,07,15,08,21,14.90
2015,07,15,08,22,14.90
2015,07,15,08,23,14.90
2015,07,15,08,24,14.90
2015,07,15,08,25,14.90
2015,07,15,08,26,14.90
2015,07,15,08,27,14.90
2015,07,15,08,28,14.90
2015,07,15,08,29,14.90
2015,07,15,08,30,14.90
2015,07,15,08,31,14.90
2015,07,15,08,32,14.90
2015,07,15,08,33,15.00
2015,07,15,08,34,15.00
2015,07,15,08,35,15.00
2015,07,15,08,36,15.00
2015,07,15,08,37,15.00
2015,07,15,08,38,15.00
2015,07,15,08,39,15.00
2015,07,15,08,40,15.10
2015,07,15,08,41,15.10
2015,07,15,08,42,15.10
2015,07,15,08,43,15.10
2015,07,15,08,44,15.10
2015,07,15,08,45,15.20
2015,07,15,08,46,15.20
2015,07,15,08,47,15.20
2015,07,15,08,48,15.20
2015,07,15,08,49,15.20
2015,07,15,08,50,15.20
2015,07,15,08,51,15.20
2015,07,15,08,52,15.20
2015,07,15,08,53,15.20
2015,07,15,08,54,15.20
2015,07,15,08,55,15.20
2015,07,15,08,56,15.20
2015,07,15,08,57,15.20
2015,07,15,08,58,15.20
2015,07,15,08,59,15.20
2015,07,15,09,00,15.30
2015,07,15,09,01,15.30
2015,07,15,09,02,15.30
2015,07,15,09,03,15.30
2015,07,15,09,04,15.30
2015,07,15,09,05,15.30
2015,07,15,09,06,15.40
2015,07,15,09,07,15.40
2015,07,15,09,08,15.40
2015,07,15,09,09,15.40
2015,07,15,09,10,15.40
2015,07,15,09,11,15.40
2015,07,15,09,12,15.40
2015,07,15,09,13,15.50
2015,07,15,09,14,15.50
2015,07,15,09,15,15.50
2015,07,15,09,16,15.60
2015,07,15,09,17,15.60
2015,07,15,09,18,15.70
2015,07,15,09,19,15.80
2015,07,15,09,20,15.90
2015,07,15,09,21,16.00
2015,07,15,09,22,16.10
2015,07,15,09,23,16.20
2015,07,15,09,24,16.30
2015,07,15,09,25,16.30
2015,07,15,09,26,16.40
2015,07,15,09,27,16.40
2015,07,15,09,28,16.40
2015,07,15,09,29,16.40
2015,07,15,09,30,16.40
2015,07,15,09,31,16.40
2015,07,15,09,32,16.50
2015,07,15,09,33,16.50
2015,07,15,09,34,16.60
2015,07,15,09,35,16.60
2015,07,15,09,36,16.70
2015,07,15,09,37,16.80
2015,07,15,09,38,16.80
2015,07,15,09,39,16.90
2015,07,15,09,40,17.00
2015,07,15,09,41,17.20
2015,07,15,09,42,17.30
2015,07,15,09,43,17.40
2015,07,15,09,44,17.40
2015,07,15,09,45,17.40
2015,07,15,09,46,17.40
2015,07,15,09,47,17.40
2015,07,15,09,48,17.40
2015,07,15,09,49,17.40
2015,07,15,09,50,17.50
2015,07,15,09,51,17.60
2015,07,15,09,52,17.60
2015,07,15,09,53,17.60
2015,07,15,09,54,17.70
2015,07,15,09,55,17.70
2015,07,15,09,56,17.80
2015,07,15,09,57,17.80
2015,07,15,09,58,17.80
2015,07,15,09,59,17.80
2015,07,15,10,00,17.80
2015,07,15,10,01,17.80
2015,07,15,10,02,17.90
2015,07,15,10,03,17.90
2015,07,15,10,04,18.00
2015,07,15,10,05,18.10
2015,07,15,10,06,18.20
2015,07,15,10,07,18.30
2015,07,15,10,08,18.30
2015,07,15,10,09,18.40
2015,07,15,10,10,18.50
2015,07,15,10,11,18.60
2015,07,15,10,12,18.70
2015,07,15,10,13,18.80
2015,07,15,10,14,18.80
2015,07,15,10,15,18.80
2015,07,15,10,16,18.70
2015,07,15,10,17,18.70
2015,07,15,10,18,18.60
2015,07,15,10,19,18.60
2015,07,15,10,20,18.60
2015,07,15,10,21,18.60
2015,07,15,10,22,18.50
2015,07,15,10,23,18.40
2015,07,15,10,24,18.40
2015,07,15,10,25,18.30
2015,07,15,10,26,18.10
2015,07,15,10,27,18.00
2015,07,15,10,28,17.80
2015,07,15,10,29,17.80
2015,07,15,10,30,17.70
2015,07,15,10,31,17.50
2015,07,15,10,32,17.40
2015,07,15,10,33,17.30
2015,07,15,10,34,17.20
2015,07,15,10,35,17.20
2015,07,15,10,36,17.20
2015,07,15,10,37,17.20
2015,07,15,10,38,17.10
2015,07,15,10,39,17.10
2015,07,15,10,40,17.10
2015,07,15,10,41,17.10
2015,07,15,10,42,17.00
2015,07,15,10,43,17.00
2015,07,15,10,44,16.90
2015,07,15,10,45,16.90
2015,07,15,10,46,16.80
2015,07,15,10,47,16.80
2015,07,15,10,48,16.70
2015,07,15,10,49,16.70
2015,07,15,10,50,16.60
2015,07,15,10,51,16.60
2015,07,15,10,52,16.60
2015,07,15,10,53,16.60
2015,07,15,10,54,16.70
2015,07,15,10,55,16.70
2015,07,15,10,56,16.70
2015,07,15,10,57,16.70
2015,07,15,10,58,16.70
2015,07,15,10,59,16.80
2015,07,15,11,00,16.80
2015,07,15,11,01,16.90
2015,07,15,11,02,16.90
2015,07,15,11,03,17.00
2015,07,15,11,04,17.00
2015,07,15,11,05,17.00
2015,07,15,11,06,17.10
2015,07,15,11,07,17.10
2015,07,15,11,08,17.20
2015,07,15,11,09,17.20
2015,07,15,11,10,17.30
2015,07,15,11,11,17.40
2015,07,15,11,12,17.50
2015,07,15,11,13,17.50
2015,07,15,11,14,17.60
2015,07,15,11,15,17.70
2015,07,15,11,16,17.80
2015,07,15,11,17,17.80
2015,07,15,11,18,17.90
2015,07,15,11,19,17.90
2015,07,15,11,20,17.90
2015,07,15,11,21,18.00
2015,07,15,11,22,18.10
2015,07,15,11,23,18.10
2015,07,15,11,24,18.20
2015,07,15,11,25,18.20
2015,07,15,11,26,18.30
2015,07,15,11,27,18.30
2015,07,15,11,28,18.40
2015,07,15,11,29,18.50
2015,07,15,11,30,18.60
2015,07,15,11,31,18.60
2015,07,15,11,32,18.70
2015,07,15,11,33,18.70
2015,07,15,11,34,18.80
2015,07,15,11,35,18.80
2015,07,15,11,36,18.90
2015,07,15,11,37,19.00
2015,07,15,11,38,19.00
2015,07,15,11,39,19.10
2015,07,15,11,40,19.10
2015,07,15,11,41,19.10
2015,07,15,11,42,19.10
2015,07,15,11,43,19.10
2015,07,15,11,44,19.00
2015,07,15,11,45,19.10
2015,07,15,11,46,19.10
2015,07,15,11,47,19.10
2015,07,15,11,48,19.20
2015,07,15,11,49,19.20
2015,07,15,11,50,19.30
2015,07,15,11,51,19.30
2015,07,15,11,52,19.20
2015,07,15,11,53,19.20
2015,07,15,11,54,19.20
2015,07,15,11,55,19.20
2015,07,15,11,56,19.20
2015,07,15,11,57,19.30
2015,07,15,11,58,19.30
2015,07,15,11,59,19.20
2015,07,15,12,00,19.20
2015,07,15,12,01,19.10
2015,07,15,12,02,19.00
2015,07,15,12,03,18.90
2015,07,15,12,04,18.80
2015,07,15,12,05,18.70
2015,07,15,12,06,18.60
2015,07,15,12,07,18.50
2015,07,15,12,08,18.40
2015,07,15,12,09,18.30
2015,07,15,12,10,18.30
2015,07,15,12,11,18.20
2015,07,15,12,12,18.20
2015,07,15,12,13,18.20
2015,07,15,12,14,18.20
2015,07,15,12,15,18.30
2015,07,15,12,16,18.30
2015,07,15,12,17,18.40
2015,07,15,12,18,18.40
2015,07,15,12,19,18.50
2015,07,15,12,20,18.50
2015,07,15,12,21,18.60
2015,07,15,12,22,18.60
2015,07,15,12,23,18.60
2015,07,15,12,24,18.50
2015,07,15,12,25,18.50
2015,07,15,12,26,18.40
2015,07,15,12,27,18.30
2015,07,15,12,28,18.30
2015,07,15,12,29,18.20
2015,07,15,12,30,18.10
2015,07,15,12,31,18.00
2015,07,15,12,32,17.90
2015,07,15,12,33,17.80
2015,07,15,12,34,17.70
2015,07,15,12,35,17.70
2015,07,15,12,36,17.70
2015,07,15,12,37,17.70
2015,07,15,12,38,17.70
2015,07,15,12,39,17.70
2015,07,15,12,40,17.70
2015,07,15,12,41,17.70
2015,07,15,12,42,17.70
2015,07,15,12,43,17.60
2015,07,15,12,44,17.60
2015,07,15,12,45,17.60
2015,07,15,12,46,17.60
2015,07,15,12,47,17.60
2015,07,15,12,48,17.60
2015,07,15,12,49,17.50
2015,07,15,12,50,17.50
2015,07,15,12,51,17.30
2015,07,15,12,52,17.20
2015,07,15,12,53,17.20
2015,07,15,12,54,17.10
2015,07,15,12,55,17.10
2015,07,15,12,56,17.20
2015,07,15,12,57,17.20
2015,07,15,12,58,17.30
2015,07,15,12,59,17.30
2015,07,15,13,00,17.30
2015,07,15,13,01,17.40
2015,07,15,13,02,17.40
2015,07,15,13,03,17.50
2015,07,15,13,04,17.50
2015,07,15,13,05,17.60
2015,07,15,13,06,17.70
2015,07,15,13,07,17.70
2015,07,15,13,08,17.80
2015,07,15,13,09,17.80
2015,07,15,13,10,17.70
2015,07,15,13,11,17.70
2015,07,15,13,12,17.70
2015,07,15,13,13,17.70
2015,07,15,13,14,17.70
2015,07,15,13,15,17.70
2015,07,15,13,16,17.70
2015,07,15,13,17,17.60
2015,07,15,13,18,17.60
2015,07,15,13,19,17.40
2015,07,15,13,20,17.30
2015,07,15,13,21,17.30
2015,07,15,13,22,17.20
2015,07,15,13,23,17.20
2015,07,15,13,24,17.10
2015,07,15,13,25,17.10
2015,07,15,13,26,17.20
2015,07,15,13,27,17.20
2015,07,15,13,28,17.20
2015,07,15,13,29,17.20
2015,07,15,13,30,17.20
2015,07,15,13,31,17.20
2015,07,15,13,32,17.20
2015,07,15,13,33,17.20
2015,07,15,13,34,17.20
2015,07,15,13,35,17.30
2015,07,15,13,36,17.30
2015,07,15,13,37,17.30
2015,07,15,13,38,17.30
2015,07,15,13,39,17.30
2015,07,15,13,40,17.40
2015,07,15,13,41,17.40
2015,07,15,13,42,17.40
2015,07,15,13,43,17.40
2015,07,15,13,44,17.40
2015,07,15,13,45,17.40
2015,07,15,13,46,17.40
2015,07,15,13,47,17.40
2015,07,15,13,48,17.40
2015,07,15,13,49,17.30
2015,07,15,13,50,17.40
2015,07,15,13,51,17.30
2015,07,15,13,52,17.30
2015,07,15,13,53,17.30
2015,07,15,13,54,17.20
2015,07,15,13,55,17.10
2015,07,15,13,56,17.10
2015,07,15,13,57,17.00
2015,07,15,13,58,17.00
2015,07,15,13,59,16.90
2015,07,15,14,00,16.90
2015,07,15,14,01,16.80
2015,07,15,14,02,16.80
2015,07,15,14,03,16.80
2015,07,15,14,04,16.80
2015,07,15,14,05,16.90
2015,07,15,14,06,16.90
2015,07,15,14,07,17.00
2015,07,15,14,08,17.00
2015,07,15,14,09,17.10
2015,07,15,14,10,17.10
2015,07,15,14,11,17.20
2015,07,15,14,12,17.20
2015,07,15,14,13,17.20
2015,07,15,14,14,17.30
2015,07,15,14,15,17.30
2015,07,15,14,16,17.40
2015,07,15,14,17,17.50
2015,07,15,14,18,17.40
2015,07,15,14,19,17.40
2015,07,15,14,20,17.40
2015,07,15,14,21,17.40
2015,07,15,14,22,17.50
2015,07,15,14,23,17.60
2015,07,15,14,24,17.70
2015,07,15,14,25,17.80
2015,07,15,14,26,17.80
2015,07,15,14,27,17.90
2015,07,15,14,28,18.00
2015,07,15,14,29,18.10
2015,07,15,14,30,18.10
2015,07,15,14,31,18.10
2015,07,15,14,32,18.10
2015,07,15,14,33,18.10
2015,07,15,14,34,18.20
2015,07,15,14,35,18.20
2015,07,15,14,36,18.30
2015,07,15,14,37,18.30
2015,07,15,14,38,18.30
2015,07,15,14,39,18.30
2015,07,15,14,40,18.30
2015,07,15,14,41,18.30
2015,07,15,14,42,18.20
2015,07,15,14,43,18.20
2015,07,15,14,44,18.20
2015,07,15,14,45,18.10
2015,07,15,14,46,18.10
2015,07,15,14,47,18.20
2015,07,15,14,48,18.20
2015,07,15,14,49,18.30
2015,07,15,14,50,18.40
2015,07,15,14,51,18.40
2015,07,15,14,52,18.50
2015,07,15,14,53,18.50
2015,07,15,14,54,18.60
2015,07,15,14,55,18.70
2015,07,15,14,56,18.70
2015,07,15,14,57,18.80
2015,07,15,14,58,18.80
2015,07,15,14,59,18.90
2015,07,15,15,00,18.90
2015,07,15,15,01,18.90
2015,07,15,15,02,18.90
2015,07,15,15,03,19.00
2015,07,15,15,04,19.10
2015,07,15,15,05,19.10
2015,07,15,15,06,19.30
2015,07,15,15,07,19.40
2015,07,15,15,08,19.50
2015,07,15,15,09,19.50
2015,07,15,15,10,19.60
2015,07,15,15,11,19.60
2015,07,15,15,12,19.60
2015,07,15,15,13,19.60
2015,07,15,15,14,19.70
2015,07,15,15,15,19.70
2015,07,15,15,16,19.70
2015,07,15,15,17,19.80
2015,07,15,15,18,19.80
2015,07,15,15,19,19.90
2015,07,15,15,20,19.90
2015,07,15,15,21,20.00
2015,07,15,15,22,20.10
2015,07,15,15,23,20.10
2015,07,15,15,24,20.20
2015,07,15,15,25,20.20
2015,07,15,15,26,20.30
2015,07,15,15,27,20.30
2015,07,15,15,28,20.40
2015,07,15,15,29,20.50
2015,07,15,15,30,20.50
2015,07,15,15,31,20.50
2015,07,15,15,32,20.50
2015,07,15,15,33,20.50
2015,07,15,15,34,20.40
2015,07,15,15,35,20.30
2015,07,15,15,36,20.30
2015,07,15,15,37,20.30
2015,07,15,15,38,20.30
2015,07,15,15,39,20.20
2015,07,15,15,40,20.20
2015,07,15,15,41,20.20
2015,07,15,15,42,20.20
2015,07,15,15,43,20.30
2015,07,15,15,44,20.30
2015,07,15,15,45,20.40
2015,07,15,15,46,20.50
2015,07,15,15,47,20.50
2015,07,15,15,48,20.50
2015,07,15,15,49,20.50
2015,07,15,15,50,20.40
2015,07,15,15,51,20.40
2015,07,15,15,52,20.40
2015,07,15,15,53,20.40
2015,07,15,15,54,20.40
2015,07,15,15,55,20.50
2015,07,15,15,56,20.50
2015,07,15,15,57,20.60
2015,07,15,15,58,20.50
2015,07,15,15,59,20.50
2015,07,15,16,00,20.60
2015,07,15,16,01,20.60
2015,07,15,16,02,20.60
2015,07,15,16,03,20.70
2015,07,15,16,04,20.70
2015,07,15,16,05,20.80
2015,07,15,16,06,20.90
2015,07,15,16,07,21.00
2015,07,15,16,08,21.00
2015,07,15,16,09,21.10
2015,07,15,16,10,21.10
2015,07,15,16,11,21.20
2015,07,15,16,12,21.30
2015,07,15,16,13,21.30
2015,07,15,16,14,21.30
2015,07,15,16,15,21.40
2015,07,15,16,16,21.50
2015,07,15,16,17,21.60
2015,07,15,16,18,21.70
2015,07,15,16,19,21.80
2015,07,15,16,20,21.90
2015,07,15,16,21,22.00
2015,07,15,16,22,22.00
2015,07,15,16,23,22.10
2015,07,15,16,24,22.00
2015,07,15,16,25,22.00
2015,07,15,16,26,21.90
2015,07,15,16,27,21.90
2015,07,15,16,28,21.90
2015,07,15,16,29,21.90
2015,07,15,16,30,21.90
2015,07,15,16,31,21.90
2015,07,15,16,32,21.90
2015,07,15,16,33,21.90
2015,07,15,16,34,22.00
2015,07,15,16,35,22.00
2015,07,15,16,36,22.10
2015,07,15,16,37,22.10
2015,07,15,16,38,22.20
2015,07,15,16,39,22.20
2015,07,15,16,40,22.20
2015,07,15,16,41,22.10
2015,07,15,16,42,22.10
2015,07,15,16,43,22.00
2015,07,15,16,44,21.90
2015,07,15,16,45,21.80
2015,07,15,16,46,21.70
2015,07,15,16,47,21.70
2015,07,15,16,48,21.70
2015,07,15,16,49,21.60
2015,07,15,16,50,21.60
2015,07,15,16,51,21.50
2015,07,15,16,52,21.40
2015,07,15,16,53,21.40
2015,07,15,16,54,21.50
2015,07,15,16,55,21.60
2015,07,15,16,56,21.60
2015,07,15,16,57,21.70
2015,07,15,16,58,21.80
2015,07,15,16,59,21.90
2015,07,15,17,00,21.90
2015,07,15,17,01,21.90
2015,07,15,17,02,21.80
2015,07,15,17,03,21.90
2015,07,15,17,04,21.90
2015,07,15,17,05,22.00
2015,07,15,17,06,22.10
2015,07,15,17,07,22.10
2015,07,15,17,08,22.10
2015,07,15,17,09,22.10
2015,07,15,17,10,22.10
2015,07,15,17,11,22.10
2015,07,15,17,12,22.00
2015,07,15,17,13,22.00
2015,07,15,17,14,21.90
2015,07,15,17,15,21.80
2015,07,15,17,16,21.70
2015,07,15,17,17,21.60
2015,07,15,17,18,21.50
2015,07,15,17,19,21.50
2015,07,15,17,20,21.40
2015,07,15,17,21,21.40
2015,07,15,17,22,21.40
2015,07,15,17,23,21.30
2015,07,15,17,24,21.20
2015,07,15,17,25,21.10
2015,07,15,17,26,21.10
2015,07,15,17,27,21.10
2015,07,15,17,28,21.20
2015,07,15,17,29,21.20
2015,07,15,17,30,21.10
2015,07,15,17,31,21.10
2015,07,15,17,32,21.10
2015,07,15,17,33,21.10
2015,07,15,17,34,21.10
2015,07,15,17,35,21.00
2015,07,15,17,36,21.00
2015,07,15,17,37,20.90
2015,07,15,17,38,20.90
2015,07,15,17,39,20.80
2015,07,15,17,40,20.70
2015,07,15,17,41,20.60
2015,07,15,17,42,20.60
2015,07,15,17,43,20.50
2015,07,15,17,44,20.40
2015,07,15,17,45,20.40
2015,07,15,17,46,20.30
2015,07,15,17,47,20.30
2015,07,15,17,48,20.30
2015,07,15,17,49,20.30
2015,07,15,17,50,20.30
2015,07,15,17,51,20.30
2015,07,15,17,52,20.30
2015,07,15,17,53,20.30
2015,07,15,17,54,20.30
2015,07,15,17,55,20.20
2015,07,15,17,56,20.20
2015,07,15,17,57,20.20
2015,07,15,17,58,20.10
2015,07,15,17,59,20.00
2015,07,15,18,00,19.90
2015,07,15,18,01,19.90
2015,07,15,18,02,19.80
2015,07,15,18,03,19.80
2015,07,15,18,04,19.70
2015,07,15,18,05,19.70
2015,07,15,18,06,19.60
2015,07,15,18,07,19.50
2015,07,15,18,08,19.40
2015,07,15,18,09,19.30
2015,07,15,18,10,19.20
2015,07,15,18,11,19.20
2015,07,15,18,12,19.10
2015,07,15,18,13,19.10